,

(GMT )
Cork

Weather History for EICK - September, 2013

Change the Weather History Date:

Tuesday, September 24, 2013

  Actual Average Record
Temperature  
Mean Temperature 58 °F -  
Max Temperature 61 °F 59 °F 64 °F (2014)
Min Temperature 56 °F 48 °F 42 °F (2005)
Degree Days  
Heating Degree Days 6    
Growing Degree Days 8 (Base 50)    
Moisture  
Dew Point 59 °F    
Average Humidity 100    
Maximum Humidity 100    
Minimum Humidity 98    
Precipitation  
Precipitation 0.02 in - - ()
Sea Level Pressure  
Sea Level Pressure 29.93 in    
Wind  
Wind Speed 9 mph ()    
Max Wind Speed 14 mph    
Max Gust Speed -    
Visibility 1.0 miles    
Events Fog , Rain    
Averages and records for this station are not official NWS values.
T = Trace of Precipitation, MM = Missing Value Source: Averaged Metar Reports

Daily Weather History Graph

Daily Weather History Graph

Search for Another Location

Airport or City:

Trip Planner

Search our weather history database for the weather conditions in past years. The results will help you decide how hot, cold, wet, or windy it might be!

Date:

Astronomy

Sep. 24, 2013 Rise Set
Actual Time 7:23 AM IST 7:27 PM IST
Civil Twilight 6:49 AM IST 8:00 PM IST
Nautical Twilight 6:10 AM IST 8:40 PM IST
Astronomical Twilight 5:28 AM IST 9:21 PM IST
Moon 9:57 PM IST (9/24) 1:02 PM IST (9/24)
Length of Visible Light 13h 11m
Length of Day
12h 04m
Waning Gibbous, 75% of the Moon is Illuminated
Sep 24
Waning Gibbous
Sep 27
Last Quarter
Oct 5
New
Oct 12
First Quarter
Oct 19
Full

Hourly Weather History & Observations

Time (IST) Temp. Dew Point Humidity Pressure Visibility Wind Dir Wind Speed Gust Speed Precip Events Conditions
12:00 AM 57.2 °F 57.2 °F 100% 30.01 in 5.0 mi ESE 12.7 mph - N/A   Mostly Cloudy
12:30 AM 57.2 °F 57.2 °F 100% 30.01 in 3.1 mi ESE 12.7 mph - N/A   Mostly Cloudy
1:00 AM 57 °F 57 °F 100% 30.00 in 2 mi ESE 11.2 mph - - Rain Light Drizzle
1:00 AM 57.2 °F 57.2 °F 100% 29.98 in 2.5 mi ESE 11.5 mph - N/A   Light Drizzle
1:30 AM 57.2 °F 57.2 °F 100% 29.98 in 2.2 mi ESE 12.7 mph - N/A   Mostly Cloudy
2:00 AM 57.2 °F 57.2 °F 100% 29.98 in 2.5 mi ESE 13.8 mph - N/A   Mostly Cloudy
2:30 AM 57.2 °F 57.2 °F 100% 29.98 in 1.7 mi ESE 13.8 mph - N/A   Overcast
3:00 AM 57.2 °F 57.2 °F 100% 29.95 in 1.1 mi ESE 11.5 mph - N/A   Overcast
3:30 AM 57.2 °F 57.2 °F 100% 29.95 in - ESE 12.7 mph - N/A   Mostly Cloudy
4:00 AM 57.2 °F 57.2 °F 100% 29.95 in - ESE 10.4 mph - N/A   Mostly Cloudy
4:30 AM 57.2 °F 57.2 °F 100% 29.92 in - ESE 12.7 mph - N/A   Mostly Cloudy
5:00 AM 57.2 °F 57.2 °F 100% 29.92 in 1.1 mi East 13.8 mph - N/A   Overcast
5:30 AM 57.2 °F 57.2 °F 100% 29.92 in 1.1 mi ESE 11.5 mph - N/A   Overcast
6:00 AM 57.2 °F 57.2 °F 100% 29.92 in 1.0 mi ESE 11.5 mph - N/A   Overcast
6:30 AM 57.2 °F 57.2 °F 100% 29.92 in 0.5 mi ESE 11.5 mph - N/A Fog Fog
7:00 AM 58 °F 58 °F 98% 29.94 in 0 mi ESE 13.4 mph - - Fog Heavy Fog
7:00 AM 57.2 °F 57.2 °F 100% 29.92 in 0.2 mi ESE 12.7 mph - N/A Fog Fog
7:30 AM 57.2 °F 57.2 °F 100% 29.92 in 0.2 mi ESE 11.5 mph - N/A Fog Fog
8:00 AM 57.2 °F 57.2 °F 100% 29.89 in 0.2 mi ESE 10.4 mph - N/A Fog Fog
8:30 AM 59.0 °F 59.0 °F 100% 29.89 in 0.3 mi ESE 13.8 mph - N/A Fog Fog
9:00 AM 59.0 °F 59.0 °F 100% 29.92 in 0.3 mi SE 12.7 mph - N/A Fog Fog
9:30 AM 59.0 °F 59.0 °F 100% 29.92 in 0.2 mi SE 13.8 mph - N/A Fog Fog
10:00 AM 59.0 °F 59.0 °F 100% 29.95 in 0.2 mi SSE 13.8 mph - N/A Fog Fog
10:30 AM 59.0 °F 59.0 °F 100% 29.95 in 0.2 mi SSE 9.2 mph - N/A Fog Fog
11:00 AM 59.0 °F 59.0 °F 100% 29.92 in 0.7 mi SSE 6.9 mph - N/A   Mostly Cloudy
11:30 AM 59.0 °F 59.0 °F 100% 29.92 in 1.1 mi ESE 6.9 mph - N/A   Mostly Cloudy
12:00 PM 60.8 °F 60.8 °F 100% 29.92 in 1.1 mi ESE 6.9 mph - N/A   Mostly Cloudy
12:30 PM 60.8 °F 60.8 °F 100% 29.92 in 0.7 mi East 6.9 mph - N/A   Light Drizzle
1:00 PM 60 °F 60 °F 100% 29.93 in 1 mi East 6.7 mph - - Fog Partial Fog
1:00 PM 60.8 °F 60.8 °F 100% 29.92 in 0.6 mi East 5.8 mph - N/A Fog Fog
1:30 PM 60.8 °F 60.8 °F 100% 29.92 in 0.9 mi ENE 3.5 mph - N/A   Mostly Cloudy
2:00 PM 60.8 °F 60.8 °F 100% 29.92 in 2.8 mi East 3.5 mph - N/A   Overcast
2:30 PM 60.8 °F 60.8 °F 100% 29.92 in 2.8 mi ESE 5.8 mph - N/A   Overcast
3:00 PM 60.8 °F 60.8 °F 100% 29.92 in 0.3 mi ESE 9.2 mph - N/A Fog Fog
3:30 PM - - N/A% 29.92 in 0.2 mi ESE 9.2 mph - N/A Fog Fog
4:00 PM 59.0 °F 59.0 °F 100% 29.92 in 0.2 mi SE 9.2 mph - N/A Fog Light Drizzle
4:30 PM 59.0 °F 59.0 °F 100% 29.92 in 0.4 mi ESE 8.1 mph - N/A Fog Light Drizzle
5:00 PM 59.0 °F 59.0 °F 100% 29.92 in 1.0 mi ESE 8.1 mph - N/A   Overcast
5:30 PM 60.8 °F 60.8 °F 100% 29.92 in 0.7 mi Variable 3.5 mph - N/A   Mist
6:00 PM 60.8 °F 60.8 °F 100% 29.92 in 1.2 mi ESE 4.6 mph - N/A   Mostly Cloudy
6:30 PM 60.8 °F 60.8 °F 100% 29.92 in 2.8 mi Variable 2.3 mph - N/A   Overcast
7:00 PM 60 °F 60 °F 100% 29.93 in 2 mi SSE 4.5 mph - -   Mist
7:00 PM 60.8 °F 60.8 °F 100% 29.92 in 2.2 mi SSE 4.6 mph - N/A   Overcast
7:30 PM 60.8 °F 60.8 °F 100% 29.92 in 0.2 mi SE 3.5 mph - N/A Fog Fog
8:00 PM 60.8 °F 60.8 °F 100% 29.92 in 0.5 mi SE 3.5 mph - N/A Fog Fog
8:30 PM 59.0 °F 59.0 °F 100% 29.92 in 0.3 mi ESE 3.5 mph - N/A Fog Fog
9:00 PM 59.0 °F 59.0 °F 100% 29.92 in 0.4 mi East 4.6 mph - N/A Fog Fog
9:30 PM 59.0 °F 59.0 °F 100% 29.92 in 0.2 mi ESE 4.6 mph - N/A Fog Fog
10:00 PM 59.0 °F 59.0 °F 100% 29.92 in 0.2 mi ESE 4.6 mph - N/A Fog Fog
10:30 PM 59.0 °F 59.0 °F 100% 29.92 in 0.2 mi East 5.8 mph - N/A Fog Fog
11:00 PM 59.0 °F 59.0 °F 100% 29.89 in 0.2 mi ESE 4.6 mph - N/A Fog Fog
11:30 PM 59.0 °F 59.0 °F 100% 29.89 in 0.2 mi ESE 5.8 mph - N/A Fog Fog